Location: ??????
(41.3164°N, 22.6615°E)
Time: 01:40:44
(UTC+00:00)

UWE-3 - Pass Details

Date: 06 July 2022
Orbit: 583 x 677 km, 97.7° (Epoch: 16 August)

Event Time Altitude Azimuth Distance (km) Brightness Sun altitude
Rises 00:42:48 0° 32° (NNE) 2,931 ? -19.4°
Reaches altitude 10° 00:45:52 10° 56° (NE) 2,037 ? -19.1°
Maximum altitude 00:48:27 15° 92° (E) 1,729 ? -18.8°
Drops below altitude 10° 00:51:04 10° 127° (SE) 2,060 ? -18.5°
Enters shadow 00:53:11 - 145° (SE) 2,651 ? -18.3°
